Index of /20260412/WXO-DD/model_gdps/15km/12/015
Name Last modified Size Description
Parent Directory -
20260412T12Z_MSC_GDPS_AbsoluteVorticity_IsbL-0200_LatLon0.15_PT015H.grib2 2026-04-12 16:12 1.2M
20260412T12Z_MSC_GDPS_AbsoluteVorticity_IsbL-0250_LatLon0.15_PT015H.grib2 2026-04-12 16:12 1.3M
20260412T12Z_MSC_GDPS_AbsoluteVorticity_IsbL-0500_LatLon0.15_PT015H.grib2 2026-04-12 16:12 1.5M
20260412T12Z_MSC_GDPS_AbsoluteVorticity_IsbL-0700_LatLon0.15_PT015H.grib2 2026-04-12 16:12 1.3M
20260412T12Z_MSC_GDPS_AbsoluteVorticity_IsbL-0850_LatLon0.15_PT015H.grib2 2026-04-12 16:12 1.6M
20260412T12Z_MSC_GDPS_AirTemp_AGL-120m_LatLon0.15_PT015H.grib2 2026-04-12 16:12 904K
20260412T12Z_MSC_GDPS_AirTemp_AGL-2m_LatLon0.15_PT015H.grib2 2026-04-12 16:12 1.2M
20260412T12Z_MSC_GDPS_AirTemp_AGL-40m_LatLon0.15_PT015H.grib2 2026-04-12 16:12 925K
20260412T12Z_MSC_GDPS_AirTemp_AGL-80m_LatLon0.15_PT015H.grib2 2026-04-12 16:12 914K
20260412T12Z_MSC_GDPS_AirTemp_IsbL-0001_LatLon0.15_PT015H.grib2 2026-04-12 16:12 641K
20260412T12Z_MSC_GDPS_AirTemp_IsbL-0005_LatLon0.15_PT015H.grib2 2026-04-12 16:12 681K
20260412T12Z_MSC_GDPS_AirTemp_IsbL-0010_LatLon0.15_PT015H.grib2 2026-04-12 16:12 758K
20260412T12Z_MSC_GDPS_AirTemp_IsbL-0020_LatLon0.15_PT015H.grib2 2026-04-12 16:12 704K
20260412T12Z_MSC_GDPS_AirTemp_IsbL-0030_LatLon0.15_PT015H.grib2 2026-04-12 16:12 752K
20260412T12Z_MSC_GDPS_AirTemp_IsbL-0050_LatLon0.15_PT015H.grib2 2026-04-12 16:12 816K
20260412T12Z_MSC_GDPS_AirTemp_IsbL-0100_LatLon0.15_PT015H.grib2 2026-04-12 16:12 943K
20260412T12Z_MSC_GDPS_AirTemp_IsbL-0150_LatLon0.15_PT015H.grib2 2026-04-12 16:12 962K
20260412T12Z_MSC_GDPS_AirTemp_IsbL-0175_LatLon0.15_PT015H.grib2 2026-04-12 16:12 953K
20260412T12Z_MSC_GDPS_AirTemp_IsbL-0200_LatLon0.15_PT015H.grib2 2026-04-12 16:12 965K
20260412T12Z_MSC_GDPS_AirTemp_IsbL-0225_LatLon0.15_PT015H.grib2 2026-04-12 16:12 1.0M
20260412T12Z_MSC_GDPS_AirTemp_IsbL-0250_LatLon0.15_PT015H.grib2 2026-04-12 16:12 1.0M
20260412T12Z_MSC_GDPS_AirTemp_IsbL-0275_LatLon0.15_PT015H.grib2 2026-04-12 16:12 1.0M
20260412T12Z_MSC_GDPS_AirTemp_IsbL-0300_LatLon0.15_PT015H.grib2 2026-04-12 16:12 951K
20260412T12Z_MSC_GDPS_AirTemp_IsbL-0350_LatLon0.15_PT015H.grib2 2026-04-12 16:12 928K
20260412T12Z_MSC_GDPS_AirTemp_IsbL-0400_LatLon0.15_PT015H.grib2 2026-04-12 16:12 940K
20260412T12Z_MSC_GDPS_AirTemp_IsbL-0450_LatLon0.15_PT015H.grib2 2026-04-12 16:12 963K
20260412T12Z_MSC_GDPS_AirTemp_IsbL-0500_LatLon0.15_PT015H.grib2 2026-04-12 16:12 1.0M
20260412T12Z_MSC_GDPS_AirTemp_IsbL-0550_LatLon0.15_PT015H.grib2 2026-04-12 16:12 1.0M
20260412T12Z_MSC_GDPS_AirTemp_IsbL-0600_LatLon0.15_PT015H.grib2 2026-04-12 16:12 890K
20260412T12Z_MSC_GDPS_AirTemp_IsbL-0650_LatLon0.15_PT015H.grib2 2026-04-12 16:12 911K
20260412T12Z_MSC_GDPS_AirTemp_IsbL-0700_LatLon0.15_PT015H.grib2 2026-04-12 16:12 942K
20260412T12Z_MSC_GDPS_AirTemp_IsbL-0750_LatLon0.15_PT015H.grib2 2026-04-12 16:12 1.0M
20260412T12Z_MSC_GDPS_AirTemp_IsbL-0800_LatLon0.15_PT015H.grib2 2026-04-12 16:12 1.0M
20260412T12Z_MSC_GDPS_AirTemp_IsbL-0850_LatLon0.15_PT015H.grib2 2026-04-12 16:12 1.1M
20260412T12Z_MSC_GDPS_AirTemp_IsbL-0875_LatLon0.15_PT015H.grib2 2026-04-12 16:12 1.1M
20260412T12Z_MSC_GDPS_AirTemp_IsbL-0900_LatLon0.15_PT015H.grib2 2026-04-12 16:12 1.1M
20260412T12Z_MSC_GDPS_AirTemp_IsbL-0925_LatLon0.15_PT015H.grib2 2026-04-12 16:12 1.1M
20260412T12Z_MSC_GDPS_AirTemp_IsbL-0950_LatLon0.15_PT015H.grib2 2026-04-12 16:12 1.1M
20260412T12Z_MSC_GDPS_AirTemp_IsbL-0970_LatLon0.15_PT015H.grib2 2026-04-12 16:12 1.1M
20260412T12Z_MSC_GDPS_AirTemp_IsbL-0985_LatLon0.15_PT015H.grib2 2026-04-12 16:12 1.1M
20260412T12Z_MSC_GDPS_AirTemp_IsbL-1000_LatLon0.15_PT015H.grib2 2026-04-12 16:12 1.1M
20260412T12Z_MSC_GDPS_AirTemp_IsbL-1015_LatLon0.15_PT015H.grib2 2026-04-12 16:12 1.1M
20260412T12Z_MSC_GDPS_Albedo_Sfc_LatLon0.15_PT015H.grib2 2026-04-12 16:12 248K
20260412T12Z_MSC_GDPS_CAPE_Sfc_LatLon0.15_PT015H.grib2 2026-04-12 16:12 3.9M
20260412T12Z_MSC_GDPS_CIN_Sfc_LatLon0.15_PT015H.grib2 2026-04-12 16:12 2.9M
20260412T12Z_MSC_GDPS_CloudWater_EAtm_LatLon0.15_PT015H.grib2 2026-04-12 16:12 518K
20260412T12Z_MSC_GDPS_ConvectivePrecip-Accum_Sfc_LatLon0.15_PT015H.grib2 2026-04-12 16:12 2.0M
20260412T12Z_MSC_GDPS_DewPointDepression_AGL-2m_LatLon0.15_PT015H.grib2 2026-04-12 16:12 744K
20260412T12Z_MSC_GDPS_DewPointDepression_IsbL-0010_LatLon0.15_PT015H.grib2 2026-04-12 16:12 2.6K
20260412T12Z_MSC_GDPS_DewPointDepression_IsbL-0020_LatLon0.15_PT015H.grib2 2026-04-12 16:12 47K
20260412T12Z_MSC_GDPS_DewPointDepression_IsbL-0030_LatLon0.15_PT015H.grib2 2026-04-12 16:12 64K
20260412T12Z_MSC_GDPS_DewPointDepression_IsbL-0050_LatLon0.15_PT015H.grib2 2026-04-12 16:12 350K
20260412T12Z_MSC_GDPS_DewPointDepression_IsbL-0100_LatLon0.15_PT015H.grib2 2026-04-12 16:12 372K
20260412T12Z_MSC_GDPS_DewPointDepression_IsbL-0150_LatLon0.15_PT015H.grib2 2026-04-12 16:12 443K
20260412T12Z_MSC_GDPS_DewPointDepression_IsbL-0175_LatLon0.15_PT015H.grib2 2026-04-12 16:12 508K
20260412T12Z_MSC_GDPS_DewPointDepression_IsbL-0200_LatLon0.15_PT015H.grib2 2026-04-12 16:12 613K
20260412T12Z_MSC_GDPS_DewPointDepression_IsbL-0225_LatLon0.15_PT015H.grib2 2026-04-12 16:12 755K
20260412T12Z_MSC_GDPS_DewPointDepression_IsbL-0250_LatLon0.15_PT015H.grib2 2026-04-12 16:12 866K
20260412T12Z_MSC_GDPS_DewPointDepression_IsbL-0275_LatLon0.15_PT015H.grib2 2026-04-12 16:12 892K
20260412T12Z_MSC_GDPS_DewPointDepression_IsbL-0300_LatLon0.15_PT015H.grib2 2026-04-12 16:12 933K
20260412T12Z_MSC_GDPS_DewPointDepression_IsbL-0350_LatLon0.15_PT015H.grib2 2026-04-12 16:12 951K
20260412T12Z_MSC_GDPS_DewPointDepression_IsbL-0400_LatLon0.15_PT015H.grib2 2026-04-12 16:12 1.0M
20260412T12Z_MSC_GDPS_DewPointDepression_IsbL-0450_LatLon0.15_PT015H.grib2 2026-04-12 16:12 1.0M
20260412T12Z_MSC_GDPS_DewPointDepression_IsbL-0500_LatLon0.15_PT015H.grib2 2026-04-12 16:12 1.0M
20260412T12Z_MSC_GDPS_DewPointDepression_IsbL-0550_LatLon0.15_PT015H.grib2 2026-04-12 16:12 1.0M
20260412T12Z_MSC_GDPS_DewPointDepression_IsbL-0600_LatLon0.15_PT015H.grib2 2026-04-12 16:12 1.0M
20260412T12Z_MSC_GDPS_DewPointDepression_IsbL-0650_LatLon0.15_PT015H.grib2 2026-04-12 16:12 1.0M
20260412T12Z_MSC_GDPS_DewPointDepression_IsbL-0700_LatLon0.15_PT015H.grib2 2026-04-12 16:12 1.1M
20260412T12Z_MSC_GDPS_DewPointDepression_IsbL-0750_LatLon0.15_PT015H.grib2 2026-04-12 16:12 1.1M
20260412T12Z_MSC_GDPS_DewPointDepression_IsbL-0800_LatLon0.15_PT015H.grib2 2026-04-12 16:12 1.1M
20260412T12Z_MSC_GDPS_DewPointDepression_IsbL-0850_LatLon0.15_PT015H.grib2 2026-04-12 16:12 1.2M
20260412T12Z_MSC_GDPS_DewPointDepression_IsbL-0875_LatLon0.15_PT015H.grib2 2026-04-12 16:12 1.1M
20260412T12Z_MSC_GDPS_DewPointDepression_IsbL-0900_LatLon0.15_PT015H.grib2 2026-04-12 16:12 1.1M
20260412T12Z_MSC_GDPS_DewPointDepression_IsbL-0925_LatLon0.15_PT015H.grib2 2026-04-12 16:12 1.0M
20260412T12Z_MSC_GDPS_DewPointDepression_IsbL-0950_LatLon0.15_PT015H.grib2 2026-04-12 16:12 1.0M
20260412T12Z_MSC_GDPS_DewPointDepression_IsbL-0970_LatLon0.15_PT015H.grib2 2026-04-12 16:12 1.0M
20260412T12Z_MSC_GDPS_DewPointDepression_IsbL-0985_LatLon0.15_PT015H.grib2 2026-04-12 16:12 1.0M
20260412T12Z_MSC_GDPS_DewPointDepression_IsbL-1000_LatLon0.15_PT015H.grib2 2026-04-12 16:12 969K
20260412T12Z_MSC_GDPS_DewPointDepression_IsbL-1015_LatLon0.15_PT015H.grib2 2026-04-12 16:12 907K
20260412T12Z_MSC_GDPS_DewPoint_AGL-2m_LatLon0.15_PT015H.grib2 2026-04-12 16:12 603K
20260412T12Z_MSC_GDPS_DownwardLongwaveRadiationFlux-Accum_Sfc_LatLon0.15_PT015H.grib2 2026-04-12 16:12 817K
20260412T12Z_MSC_GDPS_DownwardShortwaveRadiationFlux-Accum_NTAtm_LatLon0.15_PT015H.grib2 2026-04-12 16:12 371K
20260412T12Z_MSC_GDPS_DownwardShortwaveRadiationFlux-Accum_Sfc_LatLon0.15_PT015H.grib2 2026-04-12 16:12 1.0M
20260412T12Z_MSC_GDPS_FreezingRain-Accum1h_Sfc_LatLon0.15_PT015H.grib2 2026-04-12 16:12 31K
20260412T12Z_MSC_GDPS_FreezingRain-Accum3h_Sfc_LatLon0.15_PT015H.grib2 2026-04-12 16:12 35K
20260412T12Z_MSC_GDPS_FreezingRain-Accum_Sfc_LatLon0.15_PT015H.grib2 2026-04-12 16:12 83K
20260412T12Z_MSC_GDPS_GeopotentialHeight_IsbL-0001_LatLon0.15_PT015H.grib2 2026-04-12 16:12 537K
20260412T12Z_MSC_GDPS_GeopotentialHeight_IsbL-0005_LatLon0.15_PT015H.grib2 2026-04-12 16:12 444K
20260412T12Z_MSC_GDPS_GeopotentialHeight_IsbL-0010_LatLon0.15_PT015H.grib2 2026-04-12 16:12 577K
20260412T12Z_MSC_GDPS_GeopotentialHeight_IsbL-0020_LatLon0.15_PT015H.grib2 2026-04-12 16:12 578K
20260412T12Z_MSC_GDPS_GeopotentialHeight_IsbL-0030_LatLon0.15_PT015H.grib2 2026-04-12 16:12 581K
20260412T12Z_MSC_GDPS_GeopotentialHeight_IsbL-0050_LatLon0.15_PT015H.grib2 2026-04-12 16:12 509K
20260412T12Z_MSC_GDPS_GeopotentialHeight_IsbL-0100_LatLon0.15_PT015H.grib2 2026-04-12 16:12 614K
20260412T12Z_MSC_GDPS_GeopotentialHeight_IsbL-0150_LatLon0.15_PT015H.grib2 2026-04-12 16:12 632K
20260412T12Z_MSC_GDPS_GeopotentialHeight_IsbL-0175_LatLon0.15_PT015H.grib2 2026-04-12 16:12 634K
20260412T12Z_MSC_GDPS_GeopotentialHeight_IsbL-0200_LatLon0.15_PT015H.grib2 2026-04-12 16:12 637K
20260412T12Z_MSC_GDPS_GeopotentialHeight_IsbL-0225_LatLon0.15_PT015H.grib2 2026-04-12 16:12 640K
20260412T12Z_MSC_GDPS_GeopotentialHeight_IsbL-0250_LatLon0.15_PT015H.grib2 2026-04-12 16:12 639K
20260412T12Z_MSC_GDPS_GeopotentialHeight_IsbL-0275_LatLon0.15_PT015H.grib2 2026-04-12 16:12 641K
20260412T12Z_MSC_GDPS_GeopotentialHeight_IsbL-0300_LatLon0.15_PT015H.grib2 2026-04-12 16:12 639K
20260412T12Z_MSC_GDPS_GeopotentialHeight_IsbL-0350_LatLon0.15_PT015H.grib2 2026-04-12 16:12 630K
20260412T12Z_MSC_GDPS_GeopotentialHeight_IsbL-0400_LatLon0.15_PT015H.grib2 2026-04-12 16:12 620K
20260412T12Z_MSC_GDPS_GeopotentialHeight_IsbL-0450_LatLon0.15_PT015H.grib2 2026-04-12 16:12 540K
20260412T12Z_MSC_GDPS_GeopotentialHeight_IsbL-0500_LatLon0.15_PT015H.grib2 2026-04-12 16:12 528K
20260412T12Z_MSC_GDPS_GeopotentialHeight_IsbL-0550_LatLon0.15_PT015H.grib2 2026-04-12 16:12 524K
20260412T12Z_MSC_GDPS_GeopotentialHeight_IsbL-0600_LatLon0.15_PT015H.grib2 2026-04-12 16:12 685K
20260412T12Z_MSC_GDPS_GeopotentialHeight_IsbL-0650_LatLon0.15_PT015H.grib2 2026-04-12 16:12 682K
20260412T12Z_MSC_GDPS_GeopotentialHeight_IsbL-0700_LatLon0.15_PT015H.grib2 2026-04-12 16:12 684K
20260412T12Z_MSC_GDPS_GeopotentialHeight_IsbL-0750_LatLon0.15_PT015H.grib2 2026-04-12 16:12 684K
20260412T12Z_MSC_GDPS_GeopotentialHeight_IsbL-0800_LatLon0.15_PT015H.grib2 2026-04-12 16:12 700K
20260412T12Z_MSC_GDPS_GeopotentialHeight_IsbL-0850_LatLon0.15_PT015H.grib2 2026-04-12 16:12 707K
20260412T12Z_MSC_GDPS_GeopotentialHeight_IsbL-0875_LatLon0.15_PT015H.grib2 2026-04-12 16:12 711K
20260412T12Z_MSC_GDPS_GeopotentialHeight_IsbL-0900_LatLon0.15_PT015H.grib2 2026-04-12 16:12 723K
20260412T12Z_MSC_GDPS_GeopotentialHeight_IsbL-0925_LatLon0.15_PT015H.grib2 2026-04-12 16:12 727K
20260412T12Z_MSC_GDPS_GeopotentialHeight_IsbL-0950_LatLon0.15_PT015H.grib2 2026-04-12 16:12 735K
20260412T12Z_MSC_GDPS_GeopotentialHeight_IsbL-0970_LatLon0.15_PT015H.grib2 2026-04-12 16:12 747K
20260412T12Z_MSC_GDPS_GeopotentialHeight_IsbL-0985_LatLon0.15_PT015H.grib2 2026-04-12 16:12 761K
20260412T12Z_MSC_GDPS_GeopotentialHeight_IsbL-1000_LatLon0.15_PT015H.grib2 2026-04-12 16:12 781K
20260412T12Z_MSC_GDPS_GeopotentialHeight_IsbL-1015_LatLon0.15_PT015H.grib2 2026-04-12 16:12 802K
20260412T12Z_MSC_GDPS_Humidex_Sfc_LatLon0.15_PT015H.grib2 2026-04-12 16:12 5.3M
20260412T12Z_MSC_GDPS_IcePellets-Accum1h_Sfc_LatLon0.15_PT015H.grib2 2026-04-12 16:12 8.5K
20260412T12Z_MSC_GDPS_IcePellets-Accum3h_Sfc_LatLon0.15_PT015H.grib2 2026-04-12 16:12 11K
20260412T12Z_MSC_GDPS_IcePellets-Accum_Sfc_LatLon0.15_PT015H.grib2 2026-04-12 16:12 23K
20260412T12Z_MSC_GDPS_KIndex_Sfc_LatLon0.15_PT015H.grib2 2026-04-12 16:12 6.4M
20260412T12Z_MSC_GDPS_LatentHeatNetFlux_Sfc_LatLon0.15_PT015H.grib2 2026-04-12 16:12 654K
20260412T12Z_MSC_GDPS_LiftedIndex-MU-VT_IsbL-0500_LatLon0.15_PT015H.grib2 2026-04-12 16:12 5.3M
20260412T12Z_MSC_GDPS_NetLongwaveRadiationFlux-Accum_Sfc_LatLon0.15_PT015H.grib2 2026-04-12 16:12 1.0M
20260412T12Z_MSC_GDPS_NetShortwaveRadiationFlux-Accum_Sfc_LatLon0.15_PT015H.grib2 2026-04-12 16:12 1.0M
20260412T12Z_MSC_GDPS_O3MixingRatio_LatLon0.15_PT015H.grib2 2026-04-12 17:05 2.1M
20260412T12Z_MSC_GDPS_O3_EAtm_LatLon0.15_PT015H.grib2 2026-04-12 17:05 2.1M
20260412T12Z_MSC_GDPS_PlanetaryBoundaryLayerHeight_Sfc_LatLon0.15_PT015H.grib2 2026-04-12 16:12 2.8M
20260412T12Z_MSC_GDPS_Precip-Accum1h_Sfc_LatLon0.15_PT015H.grib2 2026-04-12 16:12 3.1M
20260412T12Z_MSC_GDPS_Precip-Accum3h_Sfc_LatLon0.15_PT015H.grib2 2026-04-12 16:12 3.4M
20260412T12Z_MSC_GDPS_Precip-Accum_Sfc_LatLon0.15_PT015H.grib2 2026-04-12 16:12 3.9M
20260412T12Z_MSC_GDPS_PrecipRate_Sfc_LatLon0.15_PT015H.grib2 2026-04-12 16:12 3.0M
20260412T12Z_MSC_GDPS_PrecipType-Instant_Sfc_LatLon0.15_PT015H.grib2 2026-04-12 16:12 1.4M
20260412T12Z_MSC_GDPS_Pressure_MSL_LatLon0.15_PT015H.grib2 2026-04-12 16:12 817K
20260412T12Z_MSC_GDPS_Pressure_PVU-1.5_LatLon0.15_PT015H.grib2 2026-04-12 16:12 5.8M
20260412T12Z_MSC_GDPS_Pressure_PVU-1_LatLon0.15_PT015H.grib2 2026-04-12 16:12 6.0M
20260412T12Z_MSC_GDPS_Pressure_PVU-2_LatLon0.15_PT015H.grib2 2026-04-12 16:12 6.0M
20260412T12Z_MSC_GDPS_Pressure_Sfc_LatLon0.15_PT015H.grib2 2026-04-12 16:12 1.1M
20260412T12Z_MSC_GDPS_RadiativeTemp_Sfc_LatLon0.15_PT015H.grib2 2026-04-12 16:12 658K
20260412T12Z_MSC_GDPS_Rain-Accum1h_Sfc_LatLon0.15_PT015H.grib2 2026-04-12 16:12 1.5M
20260412T12Z_MSC_GDPS_Rain-Accum3h_Sfc_LatLon0.15_PT015H.grib2 2026-04-12 16:12 1.6M
20260412T12Z_MSC_GDPS_Rain-Accum_Sfc_LatLon0.15_PT015H.grib2 2026-04-12 16:12 2.8M
20260412T12Z_MSC_GDPS_RelativeHumidity_AGL-2m_LatLon0.15_PT015H.grib2 2026-04-12 16:12 1.1M
20260412T12Z_MSC_GDPS_RelativeHumidity_IsbL-0010_LatLon0.15_PT015H.grib2 2026-04-12 16:12 250K
20260412T12Z_MSC_GDPS_RelativeHumidity_IsbL-0020_LatLon0.15_PT015H.grib2 2026-04-12 16:12 404K
20260412T12Z_MSC_GDPS_RelativeHumidity_IsbL-0030_LatLon0.15_PT015H.grib2 2026-04-12 16:12 536K
20260412T12Z_MSC_GDPS_RelativeHumidity_IsbL-0050_LatLon0.15_PT015H.grib2 2026-04-12 16:12 325K
20260412T12Z_MSC_GDPS_RelativeHumidity_IsbL-0100_LatLon0.15_PT015H.grib2 2026-04-12 16:12 498K
20260412T12Z_MSC_GDPS_RelativeHumidity_IsbL-0150_LatLon0.15_PT015H.grib2 2026-04-12 16:12 647K
20260412T12Z_MSC_GDPS_RelativeHumidity_IsbL-0175_LatLon0.15_PT015H.grib2 2026-04-12 16:12 750K
20260412T12Z_MSC_GDPS_RelativeHumidity_IsbL-0200_LatLon0.15_PT015H.grib2 2026-04-12 16:12 665K
20260412T12Z_MSC_GDPS_RelativeHumidity_IsbL-0225_LatLon0.15_PT015H.grib2 2026-04-12 16:12 757K
20260412T12Z_MSC_GDPS_RelativeHumidity_IsbL-0250_LatLon0.15_PT015H.grib2 2026-04-12 16:12 843K
20260412T12Z_MSC_GDPS_RelativeHumidity_IsbL-0275_LatLon0.15_PT015H.grib2 2026-04-12 16:12 868K
20260412T12Z_MSC_GDPS_RelativeHumidity_IsbL-0300_LatLon0.15_PT015H.grib2 2026-04-12 16:12 913K
20260412T12Z_MSC_GDPS_RelativeHumidity_IsbL-0350_LatLon0.15_PT015H.grib2 2026-04-12 16:12 938K
20260412T12Z_MSC_GDPS_RelativeHumidity_IsbL-0400_LatLon0.15_PT015H.grib2 2026-04-12 16:12 965K
20260412T12Z_MSC_GDPS_RelativeHumidity_IsbL-0450_LatLon0.15_PT015H.grib2 2026-04-12 16:12 1.0M
20260412T12Z_MSC_GDPS_RelativeHumidity_IsbL-0500_LatLon0.15_PT015H.grib2 2026-04-12 16:12 1.0M
20260412T12Z_MSC_GDPS_RelativeHumidity_IsbL-0550_LatLon0.15_PT015H.grib2 2026-04-12 16:12 1.1M
20260412T12Z_MSC_GDPS_RelativeHumidity_IsbL-0600_LatLon0.15_PT015H.grib2 2026-04-12 16:12 1.1M
20260412T12Z_MSC_GDPS_RelativeHumidity_IsbL-0650_LatLon0.15_PT015H.grib2 2026-04-12 16:12 1.1M
20260412T12Z_MSC_GDPS_RelativeHumidity_IsbL-0700_LatLon0.15_PT015H.grib2 2026-04-12 16:12 1.1M
20260412T12Z_MSC_GDPS_RelativeHumidity_IsbL-0750_LatLon0.15_PT015H.grib2 2026-04-12 16:12 1.2M
20260412T12Z_MSC_GDPS_RelativeHumidity_IsbL-0800_LatLon0.15_PT015H.grib2 2026-04-12 16:12 1.2M
20260412T12Z_MSC_GDPS_RelativeHumidity_IsbL-0850_LatLon0.15_PT015H.grib2 2026-04-12 16:12 1.3M
20260412T12Z_MSC_GDPS_RelativeHumidity_IsbL-0875_LatLon0.15_PT015H.grib2 2026-04-12 16:12 1.3M
20260412T12Z_MSC_GDPS_RelativeHumidity_IsbL-0900_LatLon0.15_PT015H.grib2 2026-04-12 16:12 1.2M
20260412T12Z_MSC_GDPS_RelativeHumidity_IsbL-0925_LatLon0.15_PT015H.grib2 2026-04-12 16:12 1.2M
20260412T12Z_MSC_GDPS_RelativeHumidity_IsbL-0950_LatLon0.15_PT015H.grib2 2026-04-12 16:12 1.2M
20260412T12Z_MSC_GDPS_RelativeHumidity_IsbL-0970_LatLon0.15_PT015H.grib2 2026-04-12 16:12 1.2M
20260412T12Z_MSC_GDPS_RelativeHumidity_IsbL-0985_LatLon0.15_PT015H.grib2 2026-04-12 16:12 1.1M
20260412T12Z_MSC_GDPS_RelativeHumidity_IsbL-1000_LatLon0.15_PT015H.grib2 2026-04-12 16:12 1.1M
20260412T12Z_MSC_GDPS_RelativeHumidity_IsbL-1015_LatLon0.15_PT015H.grib2 2026-04-12 16:12 1.0M
20260412T12Z_MSC_GDPS_RelativeVorticity_IsbL-0200_LatLon0.15_PT015H.grib2 2026-04-12 16:12 1.2M
20260412T12Z_MSC_GDPS_RelativeVorticity_IsbL-0250_LatLon0.15_PT015H.grib2 2026-04-12 16:12 1.3M
20260412T12Z_MSC_GDPS_RelativeVorticity_IsbL-0500_LatLon0.15_PT015H.grib2 2026-04-12 16:12 1.5M
20260412T12Z_MSC_GDPS_RelativeVorticity_IsbL-0700_LatLon0.15_PT015H.grib2 2026-04-12 16:12 1.3M
20260412T12Z_MSC_GDPS_RelativeVorticity_IsbL-0850_LatLon0.15_PT015H.grib2 2026-04-12 16:12 1.6M
20260412T12Z_MSC_GDPS_Runoff-Accum_Sfc_LatLon0.15_PT015H.grib2 2026-04-12 16:12 79K
20260412T12Z_MSC_GDPS_SensibleHeatNetFlux_Sfc_LatLon0.15_PT015H.grib2 2026-04-12 16:12 614K
20260412T12Z_MSC_GDPS_ShowalterIndex_IsbL-0500_LatLon0.15_PT015H.grib2 2026-04-12 16:12 6.2M
20260412T12Z_MSC_GDPS_Snow-Accum1h_Sfc_LatLon0.15_PT015H.grib2 2026-04-12 16:12 833K
20260412T12Z_MSC_GDPS_Snow-Accum3h_Sfc_LatLon0.15_PT015H.grib2 2026-04-12 16:12 861K
20260412T12Z_MSC_GDPS_Snow-Accum_Sfc_LatLon0.15_PT015H.grib2 2026-04-12 16:12 1.6M
20260412T12Z_MSC_GDPS_SnowDensity_Sfc_LatLon0.15_PT015H.grib2 2026-04-12 16:12 261K
20260412T12Z_MSC_GDPS_SnowDepth_Sfc_LatLon0.15_PT015H.grib2 2026-04-12 16:12 1.8M
20260412T12Z_MSC_GDPS_SoilTemp_DBS-0to10cm_LatLon0.15_PT015H.grib2 2026-04-12 16:12 494K
20260412T12Z_MSC_GDPS_SoilTemp_Sfc_LatLon0.15_PT015H.grib2 2026-04-12 16:12 576K
20260412T12Z_MSC_GDPS_SoilVolumetricIceContent_Sfc_LatLon0.15_PT015H.grib2 2026-04-12 16:12 229K
20260412T12Z_MSC_GDPS_SoilVolumetricWaterContent_DBS-0to10cm_LatLon0.15_PT015H.grib2 2026-04-12 16:12 551K
20260412T12Z_MSC_GDPS_SoilVolumetricWaterContent_DBS-0to1cm_LatLon0.15_PT015H.grib2 2026-04-12 16:12 651K
20260412T12Z_MSC_GDPS_SpecificHumidity_AGL-120m_LatLon0.15_PT015H.grib2 2026-04-12 16:12 1.1M
20260412T12Z_MSC_GDPS_SpecificHumidity_AGL-2m_LatLon0.15_PT015H.grib2 2026-04-12 16:12 1.2M
20260412T12Z_MSC_GDPS_SpecificHumidity_AGL-40m_LatLon0.15_PT015H.grib2 2026-04-12 16:12 1.1M
20260412T12Z_MSC_GDPS_SpecificHumidity_AGL-80m_LatLon0.15_PT015H.grib2 2026-04-12 16:12 1.1M
20260412T12Z_MSC_GDPS_SpecificHumidity_IsbL-0001_LatLon0.15_PT015H.grib2 2026-04-12 16:12 1.3M
20260412T12Z_MSC_GDPS_SpecificHumidity_IsbL-0005_LatLon0.15_PT015H.grib2 2026-04-12 16:12 1.2M
20260412T12Z_MSC_GDPS_SpecificHumidity_IsbL-0010_LatLon0.15_PT015H.grib2 2026-04-12 16:12 1.4M
20260412T12Z_MSC_GDPS_SpecificHumidity_IsbL-0020_LatLon0.15_PT015H.grib2 2026-04-12 16:12 1.4M
20260412T12Z_MSC_GDPS_SpecificHumidity_IsbL-0030_LatLon0.15_PT015H.grib2 2026-04-12 16:12 1.4M
20260412T12Z_MSC_GDPS_SpecificHumidity_IsbL-0050_LatLon0.15_PT015H.grib2 2026-04-12 16:12 1.4M
20260412T12Z_MSC_GDPS_SpecificHumidity_IsbL-0100_LatLon0.15_PT015H.grib2 2026-04-12 16:12 1.3M
20260412T12Z_MSC_GDPS_SpecificHumidity_IsbL-0150_LatLon0.15_PT015H.grib2 2026-04-12 16:12 1.4M
20260412T12Z_MSC_GDPS_SpecificHumidity_IsbL-0175_LatLon0.15_PT015H.grib2 2026-04-12 16:12 1.3M
20260412T12Z_MSC_GDPS_SpecificHumidity_IsbL-0200_LatLon0.15_PT015H.grib2 2026-04-12 16:12 1.0M
20260412T12Z_MSC_GDPS_SpecificHumidity_IsbL-0225_LatLon0.15_PT015H.grib2 2026-04-12 16:12 1.2M
20260412T12Z_MSC_GDPS_SpecificHumidity_IsbL-0250_LatLon0.15_PT015H.grib2 2026-04-12 16:12 1.2M
20260412T12Z_MSC_GDPS_SpecificHumidity_IsbL-0275_LatLon0.15_PT015H.grib2 2026-04-12 16:12 1.1M
20260412T12Z_MSC_GDPS_SpecificHumidity_IsbL-0300_LatLon0.15_PT015H.grib2 2026-04-12 16:12 1.2M
20260412T12Z_MSC_GDPS_SpecificHumidity_IsbL-0350_LatLon0.15_PT015H.grib2 2026-04-12 16:12 1.2M
20260412T12Z_MSC_GDPS_SpecificHumidity_IsbL-0400_LatLon0.15_PT015H.grib2 2026-04-12 16:12 1.4M
20260412T12Z_MSC_GDPS_SpecificHumidity_IsbL-0450_LatLon0.15_PT015H.grib2 2026-04-12 16:12 1.3M
20260412T12Z_MSC_GDPS_SpecificHumidity_IsbL-0500_LatLon0.15_PT015H.grib2 2026-04-12 16:12 1.4M
20260412T12Z_MSC_GDPS_SpecificHumidity_IsbL-0550_LatLon0.15_PT015H.grib2 2026-04-12 16:12 1.6M
20260412T12Z_MSC_GDPS_SpecificHumidity_IsbL-0600_LatLon0.15_PT015H.grib2 2026-04-12 16:12 1.4M
20260412T12Z_MSC_GDPS_SpecificHumidity_IsbL-0650_LatLon0.15_PT015H.grib2 2026-04-12 16:12 1.5M
20260412T12Z_MSC_GDPS_SpecificHumidity_IsbL-0700_LatLon0.15_PT015H.grib2 2026-04-12 16:12 1.6M
20260412T12Z_MSC_GDPS_SpecificHumidity_IsbL-0750_LatLon0.15_PT015H.grib2 2026-04-12 16:12 1.7M
20260412T12Z_MSC_GDPS_SpecificHumidity_IsbL-0800_LatLon0.15_PT015H.grib2 2026-04-12 16:12 1.8M
20260412T12Z_MSC_GDPS_SpecificHumidity_IsbL-0850_LatLon0.15_PT015H.grib2 2026-04-12 16:12 1.9M
20260412T12Z_MSC_GDPS_SpecificHumidity_IsbL-0875_LatLon0.15_PT015H.grib2 2026-04-12 16:12 1.9M
20260412T12Z_MSC_GDPS_SpecificHumidity_IsbL-0900_LatLon0.15_PT015H.grib2 2026-04-12 16:12 1.9M
20260412T12Z_MSC_GDPS_SpecificHumidity_IsbL-0925_LatLon0.15_PT015H.grib2 2026-04-12 16:12 1.6M
20260412T12Z_MSC_GDPS_SpecificHumidity_IsbL-0950_LatLon0.15_PT015H.grib2 2026-04-12 16:12 1.5M
20260412T12Z_MSC_GDPS_SpecificHumidity_IsbL-0970_LatLon0.15_PT015H.grib2 2026-04-12 16:12 1.5M
20260412T12Z_MSC_GDPS_SpecificHumidity_IsbL-0985_LatLon0.15_PT015H.grib2 2026-04-12 16:12 1.5M
20260412T12Z_MSC_GDPS_SpecificHumidity_IsbL-1000_LatLon0.15_PT015H.grib2 2026-04-12 16:12 1.5M
20260412T12Z_MSC_GDPS_SpecificHumidity_IsbL-1015_LatLon0.15_PT015H.grib2 2026-04-12 16:12 1.4M
20260412T12Z_MSC_GDPS_SpecificHumidity_Sfc_LatLon0.15_PT015H.grib2 2026-04-12 16:12 616K
20260412T12Z_MSC_GDPS_Thickness_IsbL-0850to0700_LatLon0.15_PT015H.grib2 2026-04-12 16:12 465K
20260412T12Z_MSC_GDPS_Thickness_IsbL-1000to0500_LatLon0.15_PT015H.grib2 2026-04-12 16:12 332K
20260412T12Z_MSC_GDPS_Thickness_IsbL-1000to0850_LatLon0.15_PT015H.grib2 2026-04-12 16:12 483K
20260412T12Z_MSC_GDPS_TotalCloudCover_Sfc_LatLon0.15_PT015H.grib2 2026-04-12 16:12 816K
20260412T12Z_MSC_GDPS_TotalTotalsIndex_Sfc_LatLon0.15_PT015H.grib2 2026-04-12 16:12 6.2M
20260412T12Z_MSC_GDPS_UVIndex-ClearSky_Sfc_LatLon0.15_PT015H.grib2 2026-04-12 17:05 1.0M
20260412T12Z_MSC_GDPS_UVIndex_Sfc_LatLon0.15_PT015H.grib2 2026-04-12 17:05 1.4M
20260412T12Z_MSC_GDPS_UpwardLongwaveRadiationFlux_NTAtm_LatLon0.15_PT015H.grib2 2026-04-12 16:12 1.0M
20260412T12Z_MSC_GDPS_VerticalVelocity_IsbL-0200_LatLon0.15_PT015H.grib2 2026-04-12 16:12 934K
20260412T12Z_MSC_GDPS_VerticalVelocity_IsbL-0250_LatLon0.15_PT015H.grib2 2026-04-12 16:12 1.0M
20260412T12Z_MSC_GDPS_VerticalVelocity_IsbL-0500_LatLon0.15_PT015H.grib2 2026-04-12 16:12 1.0M
20260412T12Z_MSC_GDPS_VerticalVelocity_IsbL-0600_LatLon0.15_PT015H.grib2 2026-04-12 16:12 1.1M
20260412T12Z_MSC_GDPS_VerticalVelocity_IsbL-0700_LatLon0.15_PT015H.grib2 2026-04-12 16:12 1.1M
20260412T12Z_MSC_GDPS_VerticalVelocity_IsbL-0850_LatLon0.15_PT015H.grib2 2026-04-12 16:12 1.6M
20260412T12Z_MSC_GDPS_WindChill_Sfc_LatLon0.15_PT015H.grib2 2026-04-12 16:12 5.4M
20260412T12Z_MSC_GDPS_WindDir_AGL-10m_LatLon0.15_PT015H.grib2 2026-04-12 16:12 1.3M
20260412T12Z_MSC_GDPS_WindDir_AGL-120m_LatLon0.15_PT015H.grib2 2026-04-12 16:12 1.3M
20260412T12Z_MSC_GDPS_WindDir_AGL-40m_LatLon0.15_PT015H.grib2 2026-04-12 16:12 1.4M
20260412T12Z_MSC_GDPS_WindDir_AGL-80m_LatLon0.15_PT015H.grib2 2026-04-12 16:12 1.4M
20260412T12Z_MSC_GDPS_WindDir_IsbL-0001_LatLon0.15_PT015H.grib2 2026-04-12 16:12 621K
20260412T12Z_MSC_GDPS_WindDir_IsbL-0005_LatLon0.15_PT015H.grib2 2026-04-12 16:12 787K
20260412T12Z_MSC_GDPS_WindDir_IsbL-0010_LatLon0.15_PT015H.grib2 2026-04-12 16:12 853K
20260412T12Z_MSC_GDPS_WindDir_IsbL-0020_LatLon0.15_PT015H.grib2 2026-04-12 16:12 930K
20260412T12Z_MSC_GDPS_WindDir_IsbL-0030_LatLon0.15_PT015H.grib2 2026-04-12 16:12 895K
20260412T12Z_MSC_GDPS_WindDir_IsbL-0050_LatLon0.15_PT015H.grib2 2026-04-12 16:12 966K
20260412T12Z_MSC_GDPS_WindDir_IsbL-0100_LatLon0.15_PT015H.grib2 2026-04-12 16:12 1.0M
20260412T12Z_MSC_GDPS_WindDir_IsbL-0150_LatLon0.15_PT015H.grib2 2026-04-12 16:12 1.0M
20260412T12Z_MSC_GDPS_WindDir_IsbL-0175_LatLon0.15_PT015H.grib2 2026-04-12 16:12 1.0M
20260412T12Z_MSC_GDPS_WindDir_IsbL-0200_LatLon0.15_PT015H.grib2 2026-04-12 16:12 1.1M
20260412T12Z_MSC_GDPS_WindDir_IsbL-0225_LatLon0.15_PT015H.grib2 2026-04-12 16:12 1.1M
20260412T12Z_MSC_GDPS_WindDir_IsbL-0250_LatLon0.15_PT015H.grib2 2026-04-12 16:12 1.1M
20260412T12Z_MSC_GDPS_WindDir_IsbL-0275_LatLon0.15_PT015H.grib2 2026-04-12 16:12 1.2M
20260412T12Z_MSC_GDPS_WindDir_IsbL-0300_LatLon0.15_PT015H.grib2 2026-04-12 16:12 1.2M
20260412T12Z_MSC_GDPS_WindDir_IsbL-0350_LatLon0.15_PT015H.grib2 2026-04-12 16:12 1.2M
20260412T12Z_MSC_GDPS_WindDir_IsbL-0400_LatLon0.15_PT015H.grib2 2026-04-12 16:12 1.2M
20260412T12Z_MSC_GDPS_WindDir_IsbL-0450_LatLon0.15_PT015H.grib2 2026-04-12 16:12 1.3M
20260412T12Z_MSC_GDPS_WindDir_IsbL-0500_LatLon0.15_PT015H.grib2 2026-04-12 16:12 1.3M
20260412T12Z_MSC_GDPS_WindDir_IsbL-0550_LatLon0.15_PT015H.grib2 2026-04-12 16:12 1.4M
20260412T12Z_MSC_GDPS_WindDir_IsbL-0600_LatLon0.15_PT015H.grib2 2026-04-12 16:12 1.4M
20260412T12Z_MSC_GDPS_WindDir_IsbL-0650_LatLon0.15_PT015H.grib2 2026-04-12 16:12 1.5M
20260412T12Z_MSC_GDPS_WindDir_IsbL-0700_LatLon0.15_PT015H.grib2 2026-04-12 16:12 1.6M
20260412T12Z_MSC_GDPS_WindDir_IsbL-0750_LatLon0.15_PT015H.grib2 2026-04-12 16:12 1.7M
20260412T12Z_MSC_GDPS_WindDir_IsbL-0800_LatLon0.15_PT015H.grib2 2026-04-12 16:12 1.8M
20260412T12Z_MSC_GDPS_WindDir_IsbL-0850_LatLon0.15_PT015H.grib2 2026-04-12 16:12 1.9M
20260412T12Z_MSC_GDPS_WindDir_IsbL-0875_LatLon0.15_PT015H.grib2 2026-04-12 16:12 1.9M
20260412T12Z_MSC_GDPS_WindDir_IsbL-0900_LatLon0.15_PT015H.grib2 2026-04-12 16:12 1.9M
20260412T12Z_MSC_GDPS_WindDir_IsbL-0925_LatLon0.15_PT015H.grib2 2026-04-12 16:12 2.0M
20260412T12Z_MSC_GDPS_WindDir_IsbL-0950_LatLon0.15_PT015H.grib2 2026-04-12 16:12 2.0M
20260412T12Z_MSC_GDPS_WindDir_IsbL-0970_LatLon0.15_PT015H.grib2 2026-04-12 16:12 2.0M
20260412T12Z_MSC_GDPS_WindDir_IsbL-0985_LatLon0.15_PT015H.grib2 2026-04-12 16:12 2.0M
20260412T12Z_MSC_GDPS_WindDir_IsbL-1000_LatLon0.15_PT015H.grib2 2026-04-12 16:12 2.0M
20260412T12Z_MSC_GDPS_WindDir_IsbL-1015_LatLon0.15_PT015H.grib2 2026-04-12 16:12 2.0M
20260412T12Z_MSC_GDPS_WindGust-Max_AGL-10m_LatLon0.15_PT015H.grib2 2026-04-12 16:12 2.2M
20260412T12Z_MSC_GDPS_WindGust-Min_AGL-10m_LatLon0.15_PT015H.grib2 2026-04-12 16:12 2.1M
20260412T12Z_MSC_GDPS_WindGust_AGL-10m_LatLon0.15_PT015H.grib2 2026-04-12 16:12 2.1M
20260412T12Z_MSC_GDPS_WindSpeed_AGL-10m_LatLon0.15_PT015H.grib2 2026-04-12 16:12 1.1M
20260412T12Z_MSC_GDPS_WindSpeed_AGL-120m_LatLon0.15_PT015H.grib2 2026-04-12 16:12 1.2M
20260412T12Z_MSC_GDPS_WindSpeed_AGL-40m_LatLon0.15_PT015H.grib2 2026-04-12 16:12 1.2M
20260412T12Z_MSC_GDPS_WindSpeed_AGL-80m_LatLon0.15_PT015H.grib2 2026-04-12 16:12 1.2M
20260412T12Z_MSC_GDPS_WindSpeed_IsbL-0001_LatLon0.15_PT015H.grib2 2026-04-12 16:12 635K
20260412T12Z_MSC_GDPS_WindSpeed_IsbL-0005_LatLon0.15_PT015H.grib2 2026-04-12 16:12 612K
20260412T12Z_MSC_GDPS_WindSpeed_IsbL-0010_LatLon0.15_PT015H.grib2 2026-04-12 16:12 637K
20260412T12Z_MSC_GDPS_WindSpeed_IsbL-0020_LatLon0.15_PT015H.grib2 2026-04-12 16:12 878K
20260412T12Z_MSC_GDPS_WindSpeed_IsbL-0030_LatLon0.15_PT015H.grib2 2026-04-12 16:12 869K
20260412T12Z_MSC_GDPS_WindSpeed_IsbL-0050_LatLon0.15_PT015H.grib2 2026-04-12 16:12 923K
20260412T12Z_MSC_GDPS_WindSpeed_IsbL-0100_LatLon0.15_PT015H.grib2 2026-04-12 16:12 1.1M
20260412T12Z_MSC_GDPS_WindSpeed_IsbL-0150_LatLon0.15_PT015H.grib2 2026-04-12 16:12 1.0M
20260412T12Z_MSC_GDPS_WindSpeed_IsbL-0175_LatLon0.15_PT015H.grib2 2026-04-12 16:12 1.0M
20260412T12Z_MSC_GDPS_WindSpeed_IsbL-0200_LatLon0.15_PT015H.grib2 2026-04-12 16:12 1.1M
20260412T12Z_MSC_GDPS_WindSpeed_IsbL-0225_LatLon0.15_PT015H.grib2 2026-04-12 16:12 1.1M
20260412T12Z_MSC_GDPS_WindSpeed_IsbL-0250_LatLon0.15_PT015H.grib2 2026-04-12 16:12 1.1M
20260412T12Z_MSC_GDPS_WindSpeed_IsbL-0275_LatLon0.15_PT015H.grib2 2026-04-12 16:12 1.1M
20260412T12Z_MSC_GDPS_WindSpeed_IsbL-0300_LatLon0.15_PT015H.grib2 2026-04-12 16:12 1.1M
20260412T12Z_MSC_GDPS_WindSpeed_IsbL-0350_LatLon0.15_PT015H.grib2 2026-04-12 16:12 1.1M
20260412T12Z_MSC_GDPS_WindSpeed_IsbL-0400_LatLon0.15_PT015H.grib2 2026-04-12 16:12 1.1M
20260412T12Z_MSC_GDPS_WindSpeed_IsbL-0450_LatLon0.15_PT015H.grib2 2026-04-12 16:12 1.1M
20260412T12Z_MSC_GDPS_WindSpeed_IsbL-0500_LatLon0.15_PT015H.grib2 2026-04-12 16:12 1.1M
20260412T12Z_MSC_GDPS_WindSpeed_IsbL-0550_LatLon0.15_PT015H.grib2 2026-04-12 16:12 1.1M
20260412T12Z_MSC_GDPS_WindSpeed_IsbL-0600_LatLon0.15_PT015H.grib2 2026-04-12 16:12 1.1M
20260412T12Z_MSC_GDPS_WindSpeed_IsbL-0650_LatLon0.15_PT015H.grib2 2026-04-12 16:12 1.1M
20260412T12Z_MSC_GDPS_WindSpeed_IsbL-0700_LatLon0.15_PT015H.grib2 2026-04-12 16:12 1.5M
20260412T12Z_MSC_GDPS_WindSpeed_IsbL-0750_LatLon0.15_PT015H.grib2 2026-04-12 16:12 1.5M
20260412T12Z_MSC_GDPS_WindSpeed_IsbL-0800_LatLon0.15_PT015H.grib2 2026-04-12 16:12 1.6M
20260412T12Z_MSC_GDPS_WindSpeed_IsbL-0850_LatLon0.15_PT015H.grib2 2026-04-12 16:12 1.7M
20260412T12Z_MSC_GDPS_WindSpeed_IsbL-0875_LatLon0.15_PT015H.grib2 2026-04-12 16:12 1.8M
20260412T12Z_MSC_GDPS_WindSpeed_IsbL-0900_LatLon0.15_PT015H.grib2 2026-04-12 16:12 1.8M
20260412T12Z_MSC_GDPS_WindSpeed_IsbL-0925_LatLon0.15_PT015H.grib2 2026-04-12 16:12 1.8M
20260412T12Z_MSC_GDPS_WindSpeed_IsbL-0950_LatLon0.15_PT015H.grib2 2026-04-12 16:12 1.8M
20260412T12Z_MSC_GDPS_WindSpeed_IsbL-0970_LatLon0.15_PT015H.grib2 2026-04-12 16:12 1.8M
20260412T12Z_MSC_GDPS_WindSpeed_IsbL-0985_LatLon0.15_PT015H.grib2 2026-04-12 16:12 1.9M
20260412T12Z_MSC_GDPS_WindSpeed_IsbL-1000_LatLon0.15_PT015H.grib2 2026-04-12 16:12 1.9M
20260412T12Z_MSC_GDPS_WindSpeed_IsbL-1015_LatLon0.15_PT015H.grib2 2026-04-12 16:12 1.8M
20260412T12Z_MSC_GDPS_WindU_AGL-10m_LatLon0.15_PT015H.grib2 2026-04-12 16:12 1.3M
20260412T12Z_MSC_GDPS_WindU_AGL-120m_LatLon0.15_PT015H.grib2 2026-04-12 16:12 1.0M
20260412T12Z_MSC_GDPS_WindU_AGL-40m_LatLon0.15_PT015H.grib2 2026-04-12 16:12 962K
20260412T12Z_MSC_GDPS_WindU_AGL-80m_LatLon0.15_PT015H.grib2 2026-04-12 16:12 967K
20260412T12Z_MSC_GDPS_WindU_IsbL-0001_LatLon0.15_PT015H.grib2 2026-04-12 16:12 638K
20260412T12Z_MSC_GDPS_WindU_IsbL-0005_LatLon0.15_PT015H.grib2 2026-04-12 16:12 694K
20260412T12Z_MSC_GDPS_WindU_IsbL-0010_LatLon0.15_PT015H.grib2 2026-04-12 16:12 711K
20260412T12Z_MSC_GDPS_WindU_IsbL-0020_LatLon0.15_PT015H.grib2 2026-04-12 16:12 750K
20260412T12Z_MSC_GDPS_WindU_IsbL-0030_LatLon0.15_PT015H.grib2 2026-04-12 16:12 743K
20260412T12Z_MSC_GDPS_WindU_IsbL-0050_LatLon0.15_PT015H.grib2 2026-04-12 16:12 710K
20260412T12Z_MSC_GDPS_WindU_IsbL-0100_LatLon0.15_PT015H.grib2 2026-04-12 16:12 929K
20260412T12Z_MSC_GDPS_WindU_IsbL-0150_LatLon0.15_PT015H.grib2 2026-04-12 16:12 1.0M
20260412T12Z_MSC_GDPS_WindU_IsbL-0175_LatLon0.15_PT015H.grib2 2026-04-12 16:12 812K
20260412T12Z_MSC_GDPS_WindU_IsbL-0200_LatLon0.15_PT015H.grib2 2026-04-12 16:12 843K
20260412T12Z_MSC_GDPS_WindU_IsbL-0225_LatLon0.15_PT015H.grib2 2026-04-12 16:12 854K
20260412T12Z_MSC_GDPS_WindU_IsbL-0250_LatLon0.15_PT015H.grib2 2026-04-12 16:12 854K
20260412T12Z_MSC_GDPS_WindU_IsbL-0275_LatLon0.15_PT015H.grib2 2026-04-12 16:12 938K
20260412T12Z_MSC_GDPS_WindU_IsbL-0300_LatLon0.15_PT015H.grib2 2026-04-12 16:12 931K
20260412T12Z_MSC_GDPS_WindU_IsbL-0350_LatLon0.15_PT015H.grib2 2026-04-12 16:12 889K
20260412T12Z_MSC_GDPS_WindU_IsbL-0400_LatLon0.15_PT015H.grib2 2026-04-12 16:12 891K
20260412T12Z_MSC_GDPS_WindU_IsbL-0450_LatLon0.15_PT015H.grib2 2026-04-12 16:12 893K
20260412T12Z_MSC_GDPS_WindU_IsbL-0500_LatLon0.15_PT015H.grib2 2026-04-12 16:12 1.1M
20260412T12Z_MSC_GDPS_WindU_IsbL-0550_LatLon0.15_PT015H.grib2 2026-04-12 16:12 1.1M
20260412T12Z_MSC_GDPS_WindU_IsbL-0600_LatLon0.15_PT015H.grib2 2026-04-12 16:12 1.1M
20260412T12Z_MSC_GDPS_WindU_IsbL-0650_LatLon0.15_PT015H.grib2 2026-04-12 16:12 1.2M
20260412T12Z_MSC_GDPS_WindU_IsbL-0700_LatLon0.15_PT015H.grib2 2026-04-12 16:12 1.2M
20260412T12Z_MSC_GDPS_WindU_IsbL-0750_LatLon0.15_PT015H.grib2 2026-04-12 16:12 1.3M
20260412T12Z_MSC_GDPS_WindU_IsbL-0800_LatLon0.15_PT015H.grib2 2026-04-12 16:12 1.3M
20260412T12Z_MSC_GDPS_WindU_IsbL-0850_LatLon0.15_PT015H.grib2 2026-04-12 16:12 1.4M
20260412T12Z_MSC_GDPS_WindU_IsbL-0875_LatLon0.15_PT015H.grib2 2026-04-12 16:12 1.4M
20260412T12Z_MSC_GDPS_WindU_IsbL-0900_LatLon0.15_PT015H.grib2 2026-04-12 16:12 1.4M
20260412T12Z_MSC_GDPS_WindU_IsbL-0925_LatLon0.15_PT015H.grib2 2026-04-12 16:12 1.4M
20260412T12Z_MSC_GDPS_WindU_IsbL-0950_LatLon0.15_PT015H.grib2 2026-04-12 16:12 1.4M
20260412T12Z_MSC_GDPS_WindU_IsbL-0970_LatLon0.15_PT015H.grib2 2026-04-12 16:12 1.4M
20260412T12Z_MSC_GDPS_WindU_IsbL-0985_LatLon0.15_PT015H.grib2 2026-04-12 16:12 1.4M
20260412T12Z_MSC_GDPS_WindU_IsbL-1000_LatLon0.15_PT015H.grib2 2026-04-12 16:12 1.4M
20260412T12Z_MSC_GDPS_WindU_IsbL-1015_LatLon0.15_PT015H.grib2 2026-04-12 16:12 1.3M
20260412T12Z_MSC_GDPS_WindV_AGL-10m_LatLon0.15_PT015H.grib2 2026-04-12 16:12 1.3M
20260412T12Z_MSC_GDPS_WindV_AGL-120m_LatLon0.15_PT015H.grib2 2026-04-12 16:12 1.0M
20260412T12Z_MSC_GDPS_WindV_AGL-40m_LatLon0.15_PT015H.grib2 2026-04-12 16:12 961K
20260412T12Z_MSC_GDPS_WindV_AGL-80m_LatLon0.15_PT015H.grib2 2026-04-12 16:12 1.0M
20260412T12Z_MSC_GDPS_WindV_IsbL-0001_LatLon0.15_PT015H.grib2 2026-04-12 16:12 545K
20260412T12Z_MSC_GDPS_WindV_IsbL-0005_LatLon0.15_PT015H.grib2 2026-04-12 16:12 777K
20260412T12Z_MSC_GDPS_WindV_IsbL-0010_LatLon0.15_PT015H.grib2 2026-04-12 16:12 810K
20260412T12Z_MSC_GDPS_WindV_IsbL-0020_LatLon0.15_PT015H.grib2 2026-04-12 16:12 949K
20260412T12Z_MSC_GDPS_WindV_IsbL-0030_LatLon0.15_PT015H.grib2 2026-04-12 16:12 860K
20260412T12Z_MSC_GDPS_WindV_IsbL-0050_LatLon0.15_PT015H.grib2 2026-04-12 16:12 915K
20260412T12Z_MSC_GDPS_WindV_IsbL-0100_LatLon0.15_PT015H.grib2 2026-04-12 16:12 1.1M
20260412T12Z_MSC_GDPS_WindV_IsbL-0150_LatLon0.15_PT015H.grib2 2026-04-12 16:12 1.0M
20260412T12Z_MSC_GDPS_WindV_IsbL-0175_LatLon0.15_PT015H.grib2 2026-04-12 16:12 1.0M
20260412T12Z_MSC_GDPS_WindV_IsbL-0200_LatLon0.15_PT015H.grib2 2026-04-12 16:12 841K
20260412T12Z_MSC_GDPS_WindV_IsbL-0225_LatLon0.15_PT015H.grib2 2026-04-12 16:12 850K
20260412T12Z_MSC_GDPS_WindV_IsbL-0250_LatLon0.15_PT015H.grib2 2026-04-12 16:12 850K
20260412T12Z_MSC_GDPS_WindV_IsbL-0275_LatLon0.15_PT015H.grib2 2026-04-12 16:12 933K
20260412T12Z_MSC_GDPS_WindV_IsbL-0300_LatLon0.15_PT015H.grib2 2026-04-12 16:12 862K
20260412T12Z_MSC_GDPS_WindV_IsbL-0350_LatLon0.15_PT015H.grib2 2026-04-12 16:12 880K
20260412T12Z_MSC_GDPS_WindV_IsbL-0400_LatLon0.15_PT015H.grib2 2026-04-12 16:12 883K
20260412T12Z_MSC_GDPS_WindV_IsbL-0450_LatLon0.15_PT015H.grib2 2026-04-12 16:12 885K
20260412T12Z_MSC_GDPS_WindV_IsbL-0500_LatLon0.15_PT015H.grib2 2026-04-12 16:12 1.1M
20260412T12Z_MSC_GDPS_WindV_IsbL-0550_LatLon0.15_PT015H.grib2 2026-04-12 16:12 1.1M
20260412T12Z_MSC_GDPS_WindV_IsbL-0600_LatLon0.15_PT015H.grib2 2026-04-12 16:12 1.1M
20260412T12Z_MSC_GDPS_WindV_IsbL-0650_LatLon0.15_PT015H.grib2 2026-04-12 16:12 1.2M
20260412T12Z_MSC_GDPS_WindV_IsbL-0700_LatLon0.15_PT015H.grib2 2026-04-12 16:12 1.2M
20260412T12Z_MSC_GDPS_WindV_IsbL-0750_LatLon0.15_PT015H.grib2 2026-04-12 16:12 1.2M
20260412T12Z_MSC_GDPS_WindV_IsbL-0800_LatLon0.15_PT015H.grib2 2026-04-12 16:12 1.3M
20260412T12Z_MSC_GDPS_WindV_IsbL-0850_LatLon0.15_PT015H.grib2 2026-04-12 16:12 1.4M
20260412T12Z_MSC_GDPS_WindV_IsbL-0875_LatLon0.15_PT015H.grib2 2026-04-12 16:12 1.4M
20260412T12Z_MSC_GDPS_WindV_IsbL-0900_LatLon0.15_PT015H.grib2 2026-04-12 16:12 1.4M
20260412T12Z_MSC_GDPS_WindV_IsbL-0925_LatLon0.15_PT015H.grib2 2026-04-12 16:12 1.4M
20260412T12Z_MSC_GDPS_WindV_IsbL-0950_LatLon0.15_PT015H.grib2 2026-04-12 16:12 1.4M
20260412T12Z_MSC_GDPS_WindV_IsbL-0970_LatLon0.15_PT015H.grib2 2026-04-12 16:12 1.4M
20260412T12Z_MSC_GDPS_WindV_IsbL-0985_LatLon0.15_PT015H.grib2 2026-04-12 16:12 1.4M
20260412T12Z_MSC_GDPS_WindV_IsbL-1000_LatLon0.15_PT015H.grib2 2026-04-12 16:12 1.4M
20260412T12Z_MSC_GDPS_WindV_IsbL-1015_LatLon0.15_PT015H.grib2 2026-04-12 16:12 1.3M